Terug naar catalogus

STARLINK-30307

ActiefCommunicatieVLEO
NORAD 57747·PAYLOAD·🇺🇸 United States

Gelanceerd Sep 1, 2023 vanaf Cape Canaveral Space Force Station

Loading…

Volgende Passages (komende 24 uur)

TLE

VersSource: CelesTrak SupGP

Epoch: Sep 15, 2026, 02:06 UTC

1 57747C 23131R   26258.08798611 -.00021115  00000+0 -76490-3 0  2581
2 57747  43.0031 183.0064 0001223 269.3598 336.2262 15.27584770    16

Volg STARLINK-30307 in realtime met AllMySat

Download on the App Store